Regional Weather Roundup
Issued by NWS

Home | Current Version | Previous Version | Graphics & Text | Print | Product List | Glossary On
Versions: 1 2 3 4 5 6 7 8 9 10 11 12 13 14 15 16 17 18 19 20 21 22 23 24 25 26 27 28 29 30 31 32 33 34 35 36 37 38 39 40 41 42 43 44 45 46 47 48 49 50
420
ASUS43 KOAX 191010
RWRNE

WEATHER ROUNDUP FOR NEBRASKA
NATIONAL WEATHER SERVICE OMAHA NE
500 AM CDT SAT AUG 19 2017

NOTES: SATELLITE DATA IS BEING USED TO AUGMENT CLOUD COVER ABOVE
       12000 FEET.
       "FAIR" INDICATES FEW OR NO CLOUDS BELOW 12,000 FEET WITH NO
       SIGNIFICANT WEATHER AND/OR OBSTRUCTIONS TO VISIBILITY.


NEZ001>004-019>022-054>056-191100-
NEBRASKA PANHANDLE

CITY           SKY/WX    TMP DP  RH WIND       PRES   REMARKS
SCOTTSBLUFF    CLEAR     60  51  72 NE8       29.99F
ALLIANCE       CLEAR     57  50  77 SE9       29.99F
CHADRON        CLEAR     68  48  48 S9        29.92F
GORDON         FAIR      57  53  85 CALM      29.97F
KIMBALL        CLEAR     65  55  68 S15G21    30.07F
SIDNEY         CLEAR     62  53  72 S8        30.06S
$$

NEZ057>060-069>072-079>082-191100-
SOUTHWEST NEBRASKA

CITY           SKY/WX    TMP DP  RH WIND       PRES   REMARKS
NORTH PLATTE   CLEAR     58  56  93 E3        30.01F
IMPERIAL       CLEAR     59  53  80 S3        30.04S
LEXINGTON      CLEAR     59  57  93 CALM      30.01F
MCCOOK         CLEAR     60  57  89 W3        30.00F
OGALLALA       CLEAR     62  56  81 W5        30.03R
$$

NEZ005>010-023>029-035>040-094-191100-
NORTH CENTRAL NEBRASKA

CITY           SKY/WX    TMP DP  RH WIND       PRES   REMARKS
VALENTINE      CLEAR     63  54  72 S8        29.97F
BROKEN BOW     CLEAR     57  55  93 CALM      30.01F
O`NEILL        CLEAR     58  58 100 CALM      29.99F
ORD            CLEAR     56  54  93 CALM      29.98F
THEDFORD       CLEAR     61  56  85 SE8       30.00F
$$

NEZ041-046>049-061>064-073>077-083>087-191100-
SOUTH CENTRAL NEBRASKA

CITY           SKY/WX    TMP DP  RH WIND       PRES   REMARKS
GRAND ISLAND   CLEAR     61  60  97 CALM      30.00S
AURORA         CLEAR     60  59  98 CALM      29.99S
HASTINGS       CLEAR     61  58  90 NE5       30.00F
HEBRON         CLEAR     63  61  95 CALM      29.98S
HOLDREGE       CLEAR     58  56  91 CALM      30.01F
KEARNEY        CLEAR     64  60  87 CALM      30.01F
YORK           CLEAR     59  59 100 CALM      29.99S
$$

NEZ011>018-030>034-042>045-191100-
NORTHEAST NEBRASKA

CITY           SKY/WX    TMP DP  RH WIND       PRES   REMARKS
NORFOLK        CLEAR     55  54  96 CALM      29.98R
ALBION         CLEAR     56  55  97 CALM      29.99S
BLAIR          CLEAR     61  58  89 NW7       29.96R
COLUMBUS       CLEAR     58  57  97 CALM      29.98S
FREMONT        CLEAR     58  57  97 CALM      29.97S
TEKAMAH        CLEAR     58  55  90 NW5       29.95S
WAYNE          CLEAR     52  50  92 SW3       29.97R
$$

NEZ050>053-065>068-078-088>093-191100-
SOUTHEAST NEBRASKA

CITY           SKY/WX    TMP DP  RH WIND       PRES   REMARKS
LINCOLN        CLEAR     62  59  90 N3        29.97S
OMAHA EPPLEY   CLEAR     63  58  83 N7        29.95R
BEATRICE       CLEAR     61  60  97 CALM      29.97S
FALLS CITY     CLEAR     63  62  97 NW6       29.94S
NEBRASKA CITY  CLEAR     64  64 100 CALM      29.96S
PLATTSMOUTH    CLEAR     63  59  88 CALM      29.96R
$$

NEZ044-045-051>053-067-191100-
OMAHA AREA

CITY           SKY/WX    TMP DP  RH WIND       PRES   REMARKS
OMAHA EPPLEY   CLEAR     63  58  83 N7        29.95R
BLAIR          CLEAR     61  58  89 NW7       29.96R
FREMONT        CLEAR     58  57  97 CALM      29.97S
MILLARD        CLEAR     64  60  84 NW3       29.96R
OFFUTT AFB     CLEAR     57  56  95 CALM      29.94R
PLATTSMOUTH    CLEAR     63  59  88 CALM      29.96R
WAHOO          FAIR      60  58  94 N5        29.96S
$$




USA.gov is the U.S. government's official web portal to all federal, state and local government web resources and services.